| time (UTC) | temp C | wind direction | speed KPH | gust KPH | rain 1hr cm | rain 24hr cm | rain mn cm | humidity % | barometer mb |
| 20260504002028 | 10 | 341 | 1.6 | 3.2 | 0.00 | 0.00 | 0.00 | 58 | 1008.7 |
| 20260504001526 | 10 | 86 | 3.2 | 4.8 | 0.00 | 0.00 | 0.00 | 54 | 1008.6 |
| 20260504001022 | 10 | 39 | 3.2 | 3.2 | 0.00 | 0.00 | 0.00 | 60 | 1008.5 |
| 20260504000520 | 10 | 39 | 0.0 | 1.6 | 0.00 | 0.00 | 0.00 | 56 | 1008.4 |
| 20260504000017 | 10 | 15 | 0.0 | 3.2 | 0.00 | 0.00 | 0.00 | 58 | 1008.3 |
| 20260503235515 | 11 | 13 | 0.0 | 1.6 | 0.00 | 0.00 | 0.00 | 59 | 1008.1 |
| 20260503235011 | 11 | 77 | 0.0 | 1.6 | 0.00 | 0.00 | 0.00 | 53 | 1008.3 |
| 20260503234509 | 11 | 58 | 0.0 | 1.6 | 0.00 | 0.00 | 0.00 | 49 | 1008.3 |
| 20260503234007 | 11 | 352 | 0.0 | 1.6 | 0.00 | 0.00 | 0.00 | 47 | 1008.2 |
| 20260503233503 | 12 | 44 | 0.0 | 3.2 | 0.00 | 0.00 | 0.00 | 46 | 1008.2 |
| 20260503232959 | 12 | 227 | 3.2 | 3.2 | 0.00 | 0.00 | 0.00 | 43 | 1008.1 |
| 20260503232456 | 12 | 30 | 3.2 | 3.2 | 0.00 | 0.00 | 0.00 | 43 | 1008.2 |
| 20260503231954 | 12 | 157 | 1.6 | 3.2 | 0.00 | 0.00 | 0.00 | 43 | 1007.9 |
| 20260503231452 | 12 | 215 | 0.0 | 6.4 | 0.00 | 0.00 | 0.00 | 42 | 1008.2 |
| 20260503230948 | 12 | 239 | 6.4 | 9.7 | 0.00 | 0.00 | 0.00 | 40 | 1008.3 |
| 20260503230444 | 12 | 135 | 4.8 | 4.8 | 0.00 | 0.00 | 0.00 | 44 | 1008.0 |
| 20260503225942 | 12 | 82 | 3.2 | 6.4 | 0.00 | 0.00 | 0.00 | 43 | 1008.2 |
| 20260503225439 | 12 | 261 | 1.6 | 4.8 | 0.00 | 0.00 | 0.00 | 42 | 1008.4 |
| 20260503224934 | 13 | 167 | 3.2 | 8.0 | 0.00 | 0.00 | 0.00 | 42 | 1008.2 |
| 20260503224431 | 12 | 225 | 3.2 | 6.4 | 0.00 | 0.00 | 0.00 | 42 | 1008.5 |
| 20260503223929 | 12 | 336 | 3.2 | 8.0 | 0.00 | 0.00 | 0.00 | 41 | 1008.2 |
| 20260503223427 | 12 | 285 | 4.8 | 9.7 | 0.00 | 0.00 | 0.00 | 41 | 1008.3 |
| 20260503222922 | 13 | 32 | 0.0 | 4.8 | 0.00 | 0.00 | 0.00 | 42 | 1008.2 |
| 20260503222421 | 13 | 112 | 3.2 | 4.8 | 0.00 | 0.00 | 0.00 | 43 | 1008.5 |
| 20260503221919 | 12 | 9 | 0.0 | 4.8 | 0.00 | 0.00 | 0.00 | 45 | 1008.4 |
| 20260503221417 | 12 | 110 | 3.2 | 4.8 | 0.00 | 0.00 | 0.00 | 45 | 1008.4 |
| 20260503220913 | 12 | 16 | 6.4 | 8.0 | 0.00 | 0.00 | 0.00 | 42 | 1008.3 |
| 20260503220410 | 13 | 340 | 3.2 | 6.4 | 0.00 | 0.00 | 0.00 | 40 | 1008.4 |
| 20260503215907 | 14 | 320 | 3.2 | 4.8 | 0.00 | 0.00 | 0.00 | 41 | 1008.4 |
| 20260503215404 | 13 | 356 | 3.2 | 8.0 | 0.00 | 0.00 | 0.00 | 40 | 1008.5 |
| 20260503214901 | 13 | 311 | 4.8 | 4.8 | 0.00 | 0.00 | 0.00 | 40 | 1008.5 |
| 20260503214358 | 13 | 296 | 3.2 | 9.7 | 0.00 | 0.00 | 0.00 | 43 | 1008.6 |
| 20260503213856 | 13 | 268 | 9.7 | 20.9 | 0.00 | 0.00 | 0.00 | 40 | 1008.5 |
| 20260503213354 | 13 | 200 | 3.2 | 9.7 | 0.00 | 0.00 | 0.00 | 40 | 1008.7 |
| 20260503212850 | 13 | 299 | 4.8 | 9.7 | 0.00 | 0.00 | 0.00 | 39 | 1008.5 |
| 20260503212348 | 13 | 249 | 4.8 | 8.0 | 0.00 | 0.00 | 0.00 | 40 | 1008.5 |
| 20260503211845 | 13 | 265 | 12.9 | 24.1 | 0.00 | 0.00 | 0.00 | 40 | 1008.5 |
| 20260503211342 | 13 | 115 | 4.8 | 8.0 | 0.00 | 0.00 | 0.00 | 43 | 1008.6 |
| 20260503210837 | 13 | 278 | 9.7 | 9.7 | 0.00 | 0.00 | 0.00 | 42 | 1008.5 |
| 20260503210334 | 13 | 331 | 4.8 | 17.7 | 0.00 | 0.00 | 0.00 | 41 | 1008.4 |
| 20260503205829 | 13 | 136 | 6.4 | 9.7 | 0.00 | 0.00 | 0.00 | 45 | 1008.5 |
| 20260503205326 | 12 | 325 | 0.0 | 6.4 | 0.00 | 0.00 | 0.00 | 44 | 1008.8 |
| 20260503204823 | 12 | 256 | 11.3 | 12.9 | 0.00 | 0.00 | 0.00 | 45 | 1008.8 |
| 20260503204320 | 11 | 70 | 12.9 | 22.5 | 0.00 | 0.00 | 0.00 | 46 | 1008.9 |
| 20260503203817 | 11 | 14 | 8.0 | 27.4 | 0.00 | 0.00 | 0.00 | 46 | 1008.9 |
| 20260503203315 | 12 | 238 | 6.4 | 17.7 | 0.00 | 0.00 | 0.00 | 42 | 1008.8 |
| 20260503202811 | 12 | 299 | 8.0 | 29.0 | 0.00 | 0.00 | 0.00 | 41 | 1008.6 |
| 20260503202310 | 12 | 14 | 1.6 | 11.3 | 0.00 | 0.00 | 0.00 | 41 | 1008.8 |
| 20260503201807 | 12 | 67 | 0.0 | 14.5 | 0.00 | 0.00 | 0.00 | 44 | 1008.7 |
| 20260503201304 | 12 | 263 | 19.3 | 20.9 | 0.00 | 0.00 | 0.00 | 40 | 1008.8 |
| 20260503200802 | 12 | 9 | 3.2 | 8.0 | 0.00 | 0.00 | 0.00 | 40 | 1008.7 |
| 20260503200257 | 12 | 344 | 4.8 | 8.0 | 0.00 | 0.00 | 0.00 | 38 | 1008.6 |
| 20260503195755 | 12 | 314 | 6.4 | 11.3 | 0.00 | 0.00 | 0.00 | 38 | 1008.5 |
| 20260503195251 | 13 | 350 | 4.8 | 6.4 | 0.00 | 0.00 | 0.00 | 38 | 1008.5 |
| 20260503194749 | 14 | 281 | 6.4 | 8.0 | 0.00 | 0.00 | 0.00 | 35 | 1008.6 |
| 20260503194244 | 13 | 314 | 4.8 | 9.7 | 0.00 | 0.00 | 0.00 | 37 | 1008.8 |
| 20260503193741 | 13 | 255 | 9.7 | 16.1 | 0.00 | 0.00 | 0.00 | 34 | 1008.9 |
| 20260503193237 | 12 | 281 | 9.7 | 25.7 | 0.00 | 0.00 | 0.00 | 36 | 1008.9 |
| 20260503192733 | 12 | 259 | 17.7 | 19.3 | 0.00 | 0.00 | 0.00 | 36 | 1008.8 |
| 20260503192228 | 12 | 11 | 6.4 | 8.0 | 0.00 | 0.00 | 0.00 | 37 | 1008.9 |
| 20260503191725 | 13 | 142 | 3.2 | 20.9 | 0.00 | 0.00 | 0.00 | 36 | 1008.8 |
| 20260503191222 | 12 | 332 | 9.7 | 17.7 | 0.00 | 0.00 | 0.00 | 35 | 1008.9 |
| 20260503190719 | 12 | 17 | 3.2 | 11.3 | 0.00 | 0.00 | 0.00 | 36 | 1008.8 |
| 20260503190215 | 12 | 83 | 6.4 | 11.3 | 0.00 | 0.00 | 0.00 | 35 | 1008.9 |
| 20260503185713 | 13 | 227 | 8.0 | 19.3 | 0.00 | 0.00 | 0.00 | 33 | 1009.0 |
| 20260503185208 | 13 | 344 | 3.2 | 8.0 | 0.00 | 0.00 | 0.00 | 37 | 1009.2 |
| 20260503184703 | 13 | 200 | 6.4 | 9.7 | 0.00 | 0.00 | 0.00 | 39 | 1009.1 |
| 20260503184200 | 12 | 24 | 8.0 | 16.1 | 0.00 | 0.00 | 0.00 | 37 | 1009.3 |
| 20260503183656 | 13 | 40 | 4.8 | 8.0 | 0.00 | 0.00 | 0.00 | 37 | 1009.4 |
| 20260503183153 | 13 | 191 | 9.7 | 25.7 | 0.00 | 0.00 | 0.00 | 35 | 1008.9 |
| 20260503182651 | 13 | 28 | 4.8 | 8.0 | 0.00 | 0.00 | 0.00 | 32 | 1009.3 |
| 20260503182150 | 13 | 301 | 8.0 | 12.9 | 0.00 | 0.00 | 0.00 | 37 | 1009.3 |
| 20260503181646 | 12 | 18 | 4.8 | 9.7 | 0.00 | 0.00 | 0.00 | 40 | 1009.7 |
| 20260503181143 | 13 | 317 | 8.0 | 19.3 | 0.00 | 0.00 | 0.00 | 33 | 1009.4 |
| 20260503180640 | 13 | 72 | 6.4 | 16.1 | 0.00 | 0.00 | 0.00 | 40 | 1009.4 |
| 20260503180138 | 12 | 55 | 4.8 | 19.3 | 0.00 | 0.00 | 0.00 | 37 | 1009.6 |
| 20260503175635 | 11 | 74 | 6.4 | 9.7 | 0.00 | 0.00 | 0.00 | 37 | 1009.6 |
| 20260503175132 | 11 | 313 | 8.0 | 14.5 | 0.00 | 0.00 | 0.00 | 35 | 1009.8 |
| 20260503174628 | 12 | 295 | 4.8 | 20.9 | 0.00 | 0.00 | 0.00 | 39 | 1010.0 |
| 20260503174126 | 12 | 25 | 9.7 | 12.9 | 0.00 | 0.00 | 0.00 | 41 | 1009.9 |
| 20260503173620 | 11 | 69 | 9.7 | 11.3 | 0.00 | 0.00 | 0.00 | 39 | 1010.2 |
| 20260503173117 | 11 | 118 | 9.7 | 17.7 | 0.00 | 0.00 | 0.00 | 37 | 1010.2 |
| 20260503172614 | 10 | 10 | 8.0 | 14.5 | 0.00 | 0.00 | 0.00 | 39 | 1010.2 |
| 20260503172112 | 12 | 7 | 4.8 | 8.0 | 0.00 | 0.00 | 0.00 | 38 | 1010.3 |
| 20260503171608 | 12 | 309 | 4.8 | 4.8 | 0.00 | 0.00 | 0.00 | 42 | 1010.4 |
| 20260503171105 | 11 | 92 | 6.4 | 9.7 | 0.00 | 0.00 | 0.00 | 39 | 1010.4 |
| 20260503170601 | 11 | 293 | 14.5 | 27.4 | 0.00 | 0.00 | 0.00 | 40 | 1010.3 |
| 20260503150954 | 10 | 84 | 4.8 | 14.5 | 0.00 | 0.00 | 0.00 | 42 | 1011.6 |
| 20260503150450 | 8 | 63 | 9.7 | 19.3 | 0.00 | 0.00 | 0.00 | 40 | 1011.6 |
| 20260503131343 | 7 | 345 | 3.2 | 14.5 | 0.00 | 0.00 | 0.00 | 49 | 1011.8 |
| 20260503130841 | 7 | 18 | 4.8 | 9.7 | 0.00 | 0.00 | 0.00 | 51 | 1012.0 |
| 20260503130338 | 7 | 340 | 8.0 | 19.3 | 0.00 | 0.00 | 0.00 | 50 | 1012.1 |
| 20260503110732 | 2 | 24 | 3.2 | 4.8 | 0.00 | 0.00 | 0.00 | 86 | 1011.8 |
| 20260503110229 | 2 | 54 | 3.2 | 4.8 | 0.00 | 0.00 | 0.00 | 84 | 1011.8 |
| 20260503100155 | 1 | 55 | 1.6 | 3.2 | 0.00 | 0.00 | 0.00 | 94 | 1011.2 |
| 20260503090115 | 1 | 64 | 1.6 | 3.2 | 0.00 | 0.00 | 0.00 | 93 | 1010.8 |
| 20260503081550 | 1 | 68 | 1.6 | 3.2 | 0.00 | 0.00 | 0.00 | 90 | 1010.7 |
| 20260503081048 | 1 | 73 | 3.2 | 3.2 | 0.00 | 0.00 | 0.00 | 90 | 1010.7 |
| 20260503080544 | 1 | 65 | 1.6 | 3.2 | 0.00 | 0.00 | 0.00 | 89 | 1010.6 |
| 20260503072517 | 1 | 68 | 1.6 | 3.2 | 0.00 | 0.00 | 0.00 | 91 | 1010.7 |
| 20260503072014 | 1 | 77 | 3.2 | 3.2 | 0.00 | 0.00 | 0.00 | 90 | 1010.6 |
| 20260503071511 | 2 | 62 | 3.2 | 3.2 | 0.00 | 0.00 | 0.00 | 90 | 1010.7 |
| 20260503071008 | 2 | 78 | 3.2 | 3.2 | 0.00 | 0.00 | 0.00 | 88 | 1010.7 |
| 20260503070505 | 2 | 62 | 0.0 | 3.2 | 0.00 | 0.00 | 0.00 | 88 | 1010.7 |
| 20260503054928 | 1 | 63 | 3.2 | 3.2 | 0.00 | 0.00 | 0.00 | 87 | 1010.9 |
| 20260503054424 | 2 | 60 | 3.2 | 3.2 | 0.00 | 0.00 | 0.00 | 87 | 1011.3 |
| 20260503053922 | 2 | 75 | 3.2 | 3.2 | 0.00 | 0.00 | 0.00 | 87 | 1011.3 |
| 20260503053420 | 2 | 73 | 3.2 | 3.2 | 0.00 | 0.00 | 0.00 | 87 | 1011.4 |
| 20260503052916 | 2 | 72 | 3.2 | 3.2 | 0.00 | 0.00 | 0.00 | 86 | 1011.3 |
| 20260503052414 | 2 | 73 | 3.2 | 4.8 | 0.00 | 0.00 | 0.00 | 86 | 1011.6 |
| 20260503051910 | 2 | 121 | 0.0 | 1.6 | 0.00 | 0.00 | 0.00 | 86 | 1011.6 |
| 20260503051406 | 2 | 57 | 3.2 | 3.2 | 0.00 | 0.00 | 0.00 | 87 | 1011.5 |
| 20260503050903 | 2 | 77 | 3.2 | 3.2 | 0.00 | 0.00 | 0.00 | 86 | 1011.5 |
| 20260503050359 | 2 | 31 | 1.6 | 3.2 | 0.00 | 0.00 | 0.00 | 85 | 1011.7 |
| 20260503045857 | 2 | 48 | 3.2 | 4.8 | 0.00 | 0.00 | 0.00 | 85 | 1011.8 |
| 20260503045354 | 2 | 56 | 3.2 | 3.2 | 0.00 | 0.00 | 0.00 | 85 | 1011.8 |
| 20260503044851 | 2 | 36 | 3.2 | 3.2 | 0.00 | 0.00 | 0.00 | 84 | 1012.0 |
| 20260503044348 | 2 | 58 | 3.2 | 3.2 | 0.00 | 0.00 | 0.00 | 84 | 1011.9 |
| 20260503043845 | 2 | 86 | 3.2 | 3.2 | 0.00 | 0.00 | 0.00 | 84 | 1011.8 |
| 20260503043342 | 2 | 85 | 3.2 | 4.8 | 0.00 | 0.00 | 0.00 | 83 | 1011.9 |
| 20260503042838 | 2 | 43 | 1.6 | 3.2 | 0.00 | 0.00 | 0.00 | 83 | 1012.0 |
| 20260503042335 | 2 | 31 | 1.6 | 3.2 | 0.00 | 0.00 | 0.00 | 83 | 1012.2 |
| 20260503041830 | 2 | 63 | 3.2 | 3.2 | 0.00 | 0.00 | 0.00 | 82 | 1012.2 |
| 20260503041328 | 2 | 62 | 3.2 | 4.8 | 0.00 | 0.00 | 0.00 | 82 | 1012.1 |
| 20260503040826 | 2 | 50 | 3.2 | 4.8 | 0.00 | 0.00 | 0.00 | 81 | 1012.1 |
| 20260503040323 | 2 | 62 | 1.6 | 3.2 | 0.00 | 0.00 | 0.00 | 80 | 1012.1 |
| 20260503035820 | 3 | 34 | 1.6 | 3.2 | 0.00 | 0.00 | 0.00 | 80 | 1012.0 |
| 20260503035317 | 2 | 315 | 0.0 | 3.2 | 0.00 | 0.00 | 0.00 | 80 | 1012.1 |
| 20260503034814 | 3 | 50 | 1.6 | 1.6 | 0.00 | 0.00 | 0.00 | 79 | 1012.2 |
| 20260503034311 | 3 | 33 | 0.0 | 3.2 | 0.00 | 0.00 | 0.00 | 80 | 1012.0 |
| 20260503033809 | 3 | 84 | 3.2 | 3.2 | 0.00 | 0.00 | 0.00 | 78 | 1012.0 |
| 20260503033306 | 3 | 49 | 0.0 | 3.2 | 0.00 | 0.00 | 0.00 | 79 | 1012.0 |
| 20260503032804 | 3 | 61 | 3.2 | 3.2 | 0.00 | 0.00 | 0.00 | 78 | 1012.2 |
| 20260503032304 | 3 | 40 | 1.6 | 3.2 | 0.00 | 0.00 | 0.00 | 78 | 1012.0 |
| 20260503031759 | 3 | 53 | 1.6 | 6.4 | 0.00 | 0.00 | 0.00 | 76 | 1012.2 |
| 20260503031257 | 3 | 30 | 1.6 | 3.2 | 0.00 | 0.00 | 0.00 | 77 | 1012.0 |
| 20260503030753 | 3 | 59 | 3.2 | 4.8 | 0.00 | 0.00 | 0.00 | 75 | 1012.3 |
| 20260503030250 | 3 | 33 | 3.2 | 3.2 | 0.00 | 0.00 | 0.00 | 74 | 1012.1 |
| 20260503025747 | 3 | 22 | 0.0 | 4.8 | 0.00 | 0.00 | 0.00 | 75 | 1012.1 |
| 20260503025244 | 3 | 23 | 3.2 | 3.2 | 0.00 | 0.00 | 0.00 | 74 | 1012.3 |
| 20260503024741 | 3 | 10 | 1.6 | 3.2 | 0.00 | 0.00 | 0.00 | 75 | 1011.9 |
| 20260503024238 | 3 | 357 | 0.0 | 1.6 | 0.00 | 0.00 | 0.00 | 75 | 1012.0 |
| 20260503023735 | 3 | 15 | 1.6 | 3.2 | 0.00 | 0.00 | 0.00 | 75 | 1012.2 |
| 20260503023232 | 4 | 45 | 1.6 | 4.8 | 0.00 | 0.00 | 0.00 | 72 | 1012.0 |
| 20260503022728 | 4 | 38 | 3.2 | 4.8 | 0.00 | 0.00 | 0.00 | 72 | 1012.2 |
| 20260503022228 | 4 | 35 | 4.8 | 4.8 | 0.00 | 0.00 | 0.00 | 69 | 1012.1 |
| 20260503021725 | 4 | 51 | 4.8 | 4.8 | 0.00 | 0.00 | 0.00 | 69 | 1012.2 |
| 20260503021221 | 4 | 35 | 4.8 | 4.8 | 0.00 | 0.00 | 0.00 | 68 | 1012.2 |
| 20260503020719 | 4 | 44 | 3.2 | 4.8 | 0.00 | 0.00 | 0.00 | 70 | 1012.4 |
| 20260503020216 | 4 | 89 | 1.6 | 4.8 | 0.00 | 0.00 | 0.00 | 70 | 1012.4 |
| 20260503015713 | 5 | 36 | 4.8 | 4.8 | 0.00 | 0.00 | 0.00 | 69 | 1012.2 |
| 20260503015210 | 5 | 33 | 3.2 | 6.4 | 0.00 | 0.00 | 0.00 | 68 | 1012.3 |
| 20260503014705 | 5 | 18 | 1.6 | 3.2 | 0.00 | 0.00 | 0.00 | 72 | 1012.4 |
| 20260503014203 | 5 | 49 | 0.0 | 3.2 | 0.00 | 0.00 | 0.00 | 72 | 1012.4 |
| 20260503013700 | 5 | 17 | 6.4 | 6.4 | 0.00 | 0.00 | 0.00 | 68 | 1012.2 |
| 20260503013158 | 5 | 44 | 1.6 | 3.2 | 0.00 | 0.00 | 0.00 | 70 | 1012.1 |
| 20260503012655 | 5 | 45 | 3.2 | 4.8 | 0.00 | 0.00 | 0.00 | 70 | 1012.1 |
| 20260503012152 | 5 | 32 | 4.8 | 4.8 | 0.00 | 0.00 | 0.00 | 68 | 1012.0 |
| 20260503011648 | 5 | 28 | 3.2 | 4.8 | 0.00 | 0.00 | 0.00 | 67 | 1011.9 |
| 20260503011145 | 5 | 31 | 4.8 | 6.4 | 0.00 | 0.00 | 0.00 | 65 | 1012.1 |
| 20260503010641 | 5 | 31 | 4.8 | 6.4 | 0.00 | 0.00 | 0.00 | 65 | 1012.0 |
| 20260503010139 | 5 | 36 | 3.2 | 4.8 | 0.00 | 0.00 | 0.00 | 65 | 1012.0 |
| 20260503005636 | 5 | 33 | 4.8 | 4.8 | 0.00 | 0.00 | 0.00 | 65 | 1011.8 |
| 20260503005133 | 5 | 28 | 1.6 | 6.4 | 0.00 | 0.00 | 0.00 | 64 | 1012.1 |
| 20260503004629 | 5 | 317 | 1.6 | 3.2 | 0.00 | 0.00 | 0.00 | 65 | 1011.7 |
| 20260503004128 | 5 | 11 | 0.0 | 6.4 | 0.00 | 0.00 | 0.00 | 63 | 1011.6 |
| 20260503003624 | 5 | 31 | 4.8 | 4.8 | 0.00 | 0.00 | 0.00 | 61 | 1011.6 |
| 20260503003121 | 5 | 81 | 3.2 | 3.2 | 0.00 | 0.00 | 0.00 | 61 | 1011.7 |
| 20260503002618 | 5 | 43 | 3.2 | 4.8 | 0.00 | 0.00 | 0.00 | 62 | 1011.6 |